Location: Unspecified
(0.0000°N, 0.0000°E)
Time: 09:31:48
(UTC+00:00)

STARLINK-1316 - Pass Details

Date: 19 February 2026
Orbit: 474 x 476 km, 53.2° (Epoch: 7 March)

Event Time Altitude Azimuth Distance (km) Brightness Sun altitude
Exits shadow 04:36:59 16° 23° (NNE) 1,284 5.6 -23.7°
Drops below altitude 10° 04:37:51 10° 26° (NNE) 1,626 6.2 -23.5°
Sets 04:40:01 0° 29° (NNE) 2,500 7.2 -23.0°
